When you browse on this site, cookies collect data to enhance your experience and personalize the content and advertising you see.
Visit our Privacy Policy to learn more. By continuing to use the site, you agree to this use of cookies and data.
  • In Schweiz
  • Länderverzeichnis
  • Für 7 Tage
  • Wassertemperatur
  • Wetterkarte
  • Widgets
  • user-avatar
    Anmelden

    Stündliche Wetter Parakou

    Heute, 25 Februar, Dienstag

    Zeit Temperatur Niederschläge Wind Luftdruck Luftfeuchtigkeit
    00:00 +25°C° 0 mm 2 m/S 727 mmHg 13%
    01:00 +24°C° 0 mm 2 m/S 727 mmHg 14%
    02:00 +24°C° 0 mm 3 m/S 726 mmHg 15%
    03:00 +22°C° 0 mm 3 m/S 726 mmHg 16%
    04:00 +22°C° 0 mm 3 m/S 726 mmHg 17%
    05:00 +21°C° 0 mm 2 m/S 727 mmHg 18%
    06:00 +20°C° 0 mm 2 m/S 727 mmHg 19%
    07:00 +24°C° 0 mm 3 m/S 727 mmHg 17%
    08:00 +27°C° 0 mm 4 m/S 728 mmHg 15%
    09:00 +30°C° 0 mm 5 m/S 729 mmHg 14%
    10:00 +34°C° 0 mm 4 m/S 728 mmHg 12%
    11:00 +36°C° 0 mm 4 m/S 728 mmHg 11%
    12:00 +38°C° 0 mm 4 m/S 727 mmHg 10%
    13:00 +39°C° 0 mm 3 m/S 727 mmHg 9%
    14:00 +39°C° 0 mm 3 m/S 726 mmHg 9%
    15:00 +40°C° 0 mm 2 m/S 725 mmHg 8%
    16:00 +38°C° 0 mm 2 m/S 725 mmHg 10%
    17:00 +34°C° 0 mm 1 m/S 725 mmHg 12%
    18:00 +32°C° 0 mm 1 m/S 725 mmHg 13%
    19:00 +30°C° 0 mm 1 m/S 725 mmHg 14%
    20:00 +29°C° 0 mm 1 m/S 726 mmHg 15%
    21:00 +27°C° 0 mm 2 m/S 726 mmHg 16%
    22:00 +27°C° 0 mm 2 m/S 726 mmHg 17%
    23:00 +26°C° 0 mm 2 m/S 726 mmHg 17%

    Morgen, 26 Februar, Mittwoch

    Zeit Temperatur Niederschläge Wind Luftdruck Luftfeuchtigkeit
    00:00 +25°C° 0 mm 2 m/S 726 mmHg 17%
    01:00 +24°C° 0 mm 2 m/S 726 mmHg 19%
    02:00 +23°C° 0 mm 1 m/S 725 mmHg 20%
    03:00 +22°C° 0 mm 1 m/S 725 mmHg 21%
    04:00 +21°C° 0 mm 1 m/S 725 mmHg 22%
    05:00 +21°C° 0 mm 1 m/S 726 mmHg 22%
    06:00 +21°C° 0 mm 1 m/S 726 mmHg 23%
    07:00 +24°C° 0 mm 1 m/S 727 mmHg 20%
    08:00 +27°C° 0 mm 2 m/S 727 mmHg 17%
    09:00 +30°C° 0 mm 2 m/S 728 mmHg 14%
    10:00 +34°C° 0 mm 2 m/S 728 mmHg 12%
    11:00 +38°C° 0 mm 2 m/S 727 mmHg 10%
    12:00 +41°C° 0 mm 1 m/S 727 mmHg 9%
    13:00 +42°C° 0 mm 1 m/S 726 mmHg 8%
    14:00 +43°C° 0 mm 1 m/S 725 mmHg 8%
    15:00 +41°C° 0 mm 0 m/S 724 mmHg 8%
    16:00 +37°C° 0 mm 0 m/S 724 mmHg 10%
    17:00 +34°C° 0 mm 0 m/S 724 mmHg 11%
    18:00 +30°C° 0 mm 0 m/S 724 mmHg 13%
    19:00 +29°C° 0 mm 0 m/S 724 mmHg 14%
    20:00 +28°C° 0 mm 0 m/S 725 mmHg 15%
    21:00 +26°C° 0 mm 0 m/S 726 mmHg 16%
    22:00 +25°C° 0 mm 0 m/S 726 mmHg 19%
    23:00 +26°C° 0 mm 1 m/S 726 mmHg 21%

    übermorgen, 27 Februar, Donnerstag

    Zeit Temperatur Niederschläge Wind Luftdruck Luftfeuchtigkeit
    00:00 +25°C° 0 mm 1 m/S 726 mmHg 23%
    01:00 +25°C° 0 mm 1 m/S 725 mmHg 38%
    02:00 +24°C° 0 mm 1 m/S 725 mmHg 52%
    03:00 +23°C° 0 mm 1 m/S 725 mmHg 66%
    04:00 +23°C° 0 mm 1 m/S 725 mmHg 75%
    05:00 +20°C° 0 mm 0 m/S 726 mmHg 83%
    06:00 +20°C° 0 mm 0 m/S 726 mmHg 92%
    07:00 +23°C° 0 mm 0 m/S 727 mmHg 79%
    08:00 +28°C° 0 mm 1 m/S 728 mmHg 66%
    09:00 +32°C° 0 mm 1 m/S 729 mmHg 54%
    10:00 +35°C° 0 mm 1 m/S 728 mmHg 43%
    11:00 +39°C° 0 mm 1 m/S 728 mmHg 32%
    12:00 +42°C° 0 mm 1 m/S 727 mmHg 21%
    13:00 +42°C° 0 mm 1 m/S 726 mmHg 20%
    14:00 +42°C° 0 mm 1 m/S 726 mmHg 18%
    15:00 +42°C° 0 mm 1 m/S 725 mmHg 16%
    16:00 +40°C° 0 mm 1 m/S 725 mmHg 19%
    17:00 +37°C° 0 mm 1 m/S 725 mmHg 21%
    18:00 +34°C° 0 mm 1 m/S 725 mmHg 24%
    19:00 +33°C° 0 mm 1 m/S 725 mmHg 26%
    20:00 +32°C° 0 mm 1 m/S 726 mmHg 28%
    21:00 +28°C° 0 mm 0 m/S 726 mmHg 30%
    22:00 +29°C° 0 mm 1 m/S 726 mmHg 37%
    23:00 +28°C° 0 mm 1 m/S 726 mmHg 45%

    28 Februar, Freitag

    Zeit Temperatur Niederschläge Wind Luftdruck Luftfeuchtigkeit
    00:00 +27°C° 0 mm 1 m/S 726 mmHg 52%
    01:00 +27°C° 0 mm 1 m/S 726 mmHg 62%
    02:00 +26°C° 0 mm 1 m/S 726 mmHg 72%
    03:00 +25°C° 0 mm 2 m/S 726 mmHg 82%
    04:00 +24°C° 0 mm 1 m/S 726 mmHg 86%
    05:00 +24°C° 0 mm 1 m/S 726 mmHg 90%
    06:00 +23°C° 0 mm 1 m/S 727 mmHg 94%
    07:00 +26°C° 0 mm 1 m/S 727 mmHg 81%
    08:00 +29°C° 0 mm 1 m/S 728 mmHg 69%
    09:00 +32°C° 0 mm 1 m/S 729 mmHg 56%
    10:00 +35°C° 0 mm 1 m/S 728 mmHg 43%
    11:00 +39°C° 0 mm 1 m/S 727 mmHg 31%
    12:00 +43°C° 0 mm 1 m/S 727 mmHg 18%
    13:00 +43°C° 0 mm 1 m/S 726 mmHg 17%
    14:00 +44°C° 0 mm 1 m/S 726 mmHg 15%
    15:00 +41°C° 0 mm 0 m/S 725 mmHg 13%
    16:00 +39°C° 0 mm 0 m/S 725 mmHg 15%
    17:00 +36°C° 0 mm 0 m/S 725 mmHg 18%
    18:00 +33°C° 0 mm 0 m/S 725 mmHg 20%
    19:00 +32°C° 0 mm 0 m/S 725 mmHg 21%
    20:00 +32°C° 0 mm 1 m/S 726 mmHg 22%
    21:00 +31°C° 0 mm 1 m/S 726 mmHg 24%
    22:00 +30°C° 0 mm 1 m/S 726 mmHg 29%
    23:00 +29°C° 0 mm 1 m/S 726 mmHg 34%

    29 Februar, Samstag

    Zeit Temperatur Niederschläge Wind Luftdruck Luftfeuchtigkeit
    00:00 +27°C° 0 mm 2 m/S 726 mmHg 39%
    01:00 +26°C° 0 mm 2 m/S 726 mmHg 56%
    02:00 +25°C° 0 mm 2 m/S 726 mmHg 73%
    03:00 +25°C° 0 mm 2 m/S 725 mmHg 90%
    04:00 +24°C° 0 mm 1 m/S 726 mmHg 92%
    05:00 +24°C° 0 mm 1 m/S 726 mmHg 94%
    06:00 +23°C° 0 mm 1 m/S 726 mmHg 96%
    07:00 +25°C° 0 mm 0 m/S 727 mmHg 80%
    08:00 +28°C° 0 mm 0 m/S 727 mmHg 65%
    09:00 +32°C° 0 mm 0 m/S 728 mmHg 49%
    10:00 +36°C° 0 mm 1 m/S 728 mmHg 37%
    11:00 +40°C° 0 mm 2 m/S 727 mmHg 25%
    12:00 +43°C° 0 mm 3 m/S 726 mmHg 13%
    13:00 +43°C° 0 mm 3 m/S 725 mmHg 11%
    14:00 +44°C° 0 mm 3 m/S 724 mmHg 10%
    15:00 +44°C° 0 mm 3 m/S 723 mmHg 8%
    16:00 +41°C° 0 mm 2 m/S 724 mmHg 9%
    17:00 +39°C° 0 mm 2 m/S 724 mmHg 11%
    18:00 +35°C° 0 mm 1 m/S 724 mmHg 12%
    19:00 +34°C° 0 mm 1 m/S 724 mmHg 13%
    20:00 +32°C° 0 mm 1 m/S 725 mmHg 14%
    21:00 +30°C° 0 mm 1 m/S 725 mmHg 15%
    22:00 +29°C° 0 mm 2 m/S 725 mmHg 22%
    23:00 +28°C° 0 mm 2 m/S 725 mmHg 29%

    1 März, Sonntag

    Zeit Temperatur Niederschläge Wind Luftdruck Luftfeuchtigkeit
    00:00 +27°C° 0 mm 3 m/S 725 mmHg 36%
    01:00 +26°C° 0 mm 2 m/S 725 mmHg 56%
    02:00 +25°C° 0 mm 2 m/S 725 mmHg 76%
    03:00 +24°C° 0 mm 2 m/S 725 mmHg 96%
    04:00 +25°C° 0 mm 2 m/S 725 mmHg 94%
    05:00 +25°C° 0 mm 2 m/S 725 mmHg 92%
    06:00 +26°C° 0 mm 3 m/S 726 mmHg 90%
    07:00 +27°C° 0 mm 3 m/S 726 mmHg 82%
    08:00 +29°C° 0 mm 2 m/S 727 mmHg 73%
    09:00 +30°C° 0 mm 2 m/S 728 mmHg 65%
    10:00 +36°C° 0 mm 2 m/S 727 mmHg 49%
    11:00 +41°C° 0 mm 1 m/S 727 mmHg 34%
    12:00 +42°C° 0 mm 0 m/S 727 mmHg 18%
    13:00 +42°C° 0 mm 0 m/S 726 mmHg 17%
    14:00 +42°C° 0 mm 0 m/S 725 mmHg 15%
    15:00 +42°C° 0 mm 0 m/S 724 mmHg 14%
    16:00 +42°C° 0 mm 1 m/S 724 mmHg 16%
    17:00 +39°C° 0 mm 1 m/S 724 mmHg 18%
    18:00 +36°C° 0 mm 1 m/S 724 mmHg 21%
    19:00 +36°C° 0 mm 2 m/S 724 mmHg 25%
    20:00 +35°C° 0 mm 2 m/S 725 mmHg 30%
    21:00 +34°C° 0 mm 3 m/S 726 mmHg 35%
    22:00 +31°C° 0 mm 3 m/S 726 mmHg 46%
    23:00 +30°C° 0 mm 3 m/S 726 mmHg 56%
    Mehr zeigen